This is the latest recevied weather packets stored in our database for station/object SR9NLI. If no packets are shown the sender has not sent any weather packets the latest 1 day(s).
| Time | Temp. | Humidity | Pressure | Rain* | Wind** | Luminosity | Snow |
|---|---|---|---|---|---|---|---|
| 1777997057 | 22.22° C | 100% | 949.6 hPa | - | 1.79 m/s, 191° | - | - |
| 1777996995 | 22.22° C | 100% | 949.5 hPa | - | 1.79 m/s, 184° | - | - |
| 1777996871 | 22.22° C | 100% | 949.6 hPa | - | 1.79 m/s, 185° | - | - |
| 1777996749 | 22.22° C | 100% | 949.6 hPa | - | 2.24 m/s, 184° | - | - |
| 1777996688 | 22.22° C | 100% | 949.5 hPa | - | 2.24 m/s, 182° | - | - |
| 1777996626 | 22.22° C | 100% | 949.6 hPa | - | 2.68 m/s, 182° | - | - |
| 1777996502 | 22.22° C | 100% | 949.6 hPa | - | 1.79 m/s, 183° | - | - |
| 1777996379 | 22.22° C | 100% | 949.6 hPa | - | 1.79 m/s, 187° | - | - |
| 1777996318 | 22.22° C | 100% | 949.5 hPa | - | 1.79 m/s, 180° | - | - |
| 1777996256 | 22.22° C | 100% | 949.4 hPa | - | 1.79 m/s, 183° | - | - |
| 1777996133 | 22.22° C | 100% | 949.5 hPa | - | 1.79 m/s, 181° | - | - |
| 1777996010 | 22.22° C | 100% | 949.6 hPa | - | 1.79 m/s, 190° | - | - |
| 1777995949 | 22.78° C | 100% | 949.6 hPa | - | 2.24 m/s, 180° | - | - |
| 1777995887 | 22.78° C | 100% | 949.6 hPa | - | 2.24 m/s, 188° | - | - |
| 1777995764 | 22.78° C | 100% | 949.5 hPa | - | 2.68 m/s, 187° | - | - |
| 1777995641 | 22.78° C | 100% | 949.6 hPa | - | 1.79 m/s, 198° | - | - |
| 1777995580 | 22.78° C | 100% | 949.6 hPa | - | 2.24 m/s, 185° | - | - |
| 1777995517 | 22.78° C | 100% | 949.5 hPa | - | 2.24 m/s, 175° | - | - |
| 1777995393 | 22.78° C | 100% | 949.5 hPa | - | 2.24 m/s, 178° | - | - |
| 1777995270 | 22.78° C | 100% | 949.4 hPa | - | 1.79 m/s, 197° | - | - |
| 1777995209 | 22.78° C | 100% | 949.5 hPa | - | 2.24 m/s, 197° | - | - |
| 1777995147 | 22.78° C | 100% | 949.2 hPa | - | 2.24 m/s, 189° | - | - |
| 1777995024 | 23.33° C | 100% | 949.4 hPa | - | 1.79 m/s, 191° | - | - |
| 1777994901 | 23.33° C | 100% | 949.5 hPa | - | 1.79 m/s, 200° | - | - |
| 1777994840 | 23.33° C | 100% | 949.7 hPa | - | 1.79 m/s, 198° | - | - |
* Rain since midnight (hover to see other rain measurements)
** Current wind speed in m/s (hover to see current wind gust speed)